timestamp,wind_dir_avg,wind_spd_avg,wind_spd_max_dir,wind_spd_gust,battery_voltage,lat,long
2023-03-18 00:04:00+00:00,330.0,13.74,337.0,16.67,12.41,47.59359,-54.27349
2023-03-18 00:14:00+00:00,337.0,10.66,333.0,13.01,12.33,47.59359,-54.27349
2023-03-18 00:24:00+00:00,338.0,10.68,344.0,12.15,12.33,47.59359,-54.27349
2023-03-18 00:34:00+00:00,336.0,11.41,327.0,13.55,12.33,47.59359,-54.27349
2023-03-18 00:44:00+00:00,332.0,10.33,320.0,13.05,12.33,47.59359,-54.27349
2023-03-18 00:54:00+00:00,334.0,11.74,329.0,13.36,12.33,47.59359,-54.27349
2023-03-18 01:04:00+00:00,328.0,11.9,324.0,13.96,12.33,47.59359,-54.27349
2023-03-18 01:14:00+00:00,330.0,13.27,325.0,15.93,12.33,47.59359,-54.27349
2023-03-18 01:24:00+00:00,334.0,11.7,322.0,14.06,12.33,47.59359,-54.27349
2023-03-18 01:34:00+00:00,328.0,11.53,322.0,13.88,12.33,47.59359,-54.27349
2023-03-18 01:44:00+00:00,329.0,14.21,327.0,17.17,12.33,47.59359,-54.27349
2023-03-18 01:54:00+00:00,326.0,14.8,325.0,16.9,12.33,47.59359,-54.27349
2023-03-18 02:04:00+00:00,334.0,12.48,348.0,15.34,12.33,47.59359,-54.27349
2023-03-18 02:14:00+00:00,322.0,13.23,320.0,15.55,12.25,47.59359,-54.27349
2023-03-18 02:24:00+00:00,336.0,9.4,332.0,10.91,12.25,47.59359,-54.27349
2023-03-18 02:34:00+00:00,335.0,11.92,328.0,15.2,12.25,47.59359,-54.27349
2023-03-18 02:44:00+00:00,343.0,12.28,354.0,14.1,12.25,47.59359,-54.27349
2023-03-18 02:54:00+00:00,332.0,11.91,323.0,14.19,12.25,47.59359,-54.27349
2023-03-18 03:04:00+00:00,328.0,13.59,321.0,16.38,12.25,47.59359,-54.27349
2023-03-18 03:14:00+00:00,341.0,9.26,340.0,11.12,12.25,47.59359,-54.27349
2023-03-18 03:24:00+00:00,341.0,10.07,321.0,12.11,12.25,47.59359,-54.27349
2023-03-18 03:34:00+00:00,342.0,12.44,331.0,13.66,12.25,47.59359,-54.27349
2023-03-18 03:44:00+00:00,346.0,10.44,341.0,11.92,12.25,47.59359,-54.27349
2023-03-18 03:54:00+00:00,342.0,10.91,340.0,12.62,12.25,47.59359,-54.27349
2023-03-18 04:04:00+00:00,340.0,10.7,332.0,12.26,12.25,47.59359,-54.27349
2023-03-18 04:14:00+00:00,352.0,9.79,352.0,11.12,12.17,47.59359,-54.27349
2023-03-18 04:24:00+00:00,352.0,9.98,355.0,11.83,12.17,47.59359,-54.27349
2023-03-18 04:34:00+00:00,352.0,8.71,354.0,10.67,12.17,47.59359,-54.27349
2023-03-18 04:44:00+00:00,352.0,8.45,359.0,9.68,12.17,47.59359,-54.27349
2023-03-18 04:54:00+00:00,0.0,9.56,3.0,11.55,12.17,47.59359,-54.27349
2023-03-18 05:04:00+00:00,1.0,8.16,1.0,9.93,12.17,47.59359,-54.27349
2023-03-18 05:14:01+00:00,358.0,7.87,2.0,9.08,12.17,47.59359,-54.27349
2023-03-18 05:24:01+00:00,351.0,10.0,355.0,11.65,12.17,47.59359,-54.27349
2023-03-18 05:34:01+00:00,353.0,7.92,353.0,8.94,12.17,47.59359,-54.27349
2023-03-18 05:44:01+00:00,354.0,10.55,353.0,11.58,12.17,47.59359,-54.27349
2023-03-18 05:54:01+00:00,353.0,7.69,351.0,8.59,12.17,47.59359,-54.27349
2023-03-18 06:04:01+00:00,354.0,10.31,355.0,12.47,12.17,47.59359,-54.27349
2023-03-18 06:14:00+00:00,353.0,10.71,346.0,13.03,12.17,47.59359,-54.27349
2023-03-18 06:24:00+00:00,353.0,10.15,0.0,12.51,12.17,47.59359,-54.27349
2023-03-18 06:34:00+00:00,354.0,9.71,349.0,11.41,12.17,47.59359,-54.27349
2023-03-18 06:44:00+00:00,1.0,6.95,356.0,8.82,12.17,47.59359,-54.27349
2023-03-18 06:54:00+00:00,353.0,6.17,357.0,7.29,12.17,47.59359,-54.27349
2023-03-18 07:04:00+00:00,0.0,6.29,4.0,7.49,12.17,47.59359,-54.27349
2023-03-18 07:14:00+00:00,351.0,5.47,348.0,6.2,12.17,47.59359,-54.27349
2023-03-18 07:24:00+00:00,347.0,5.64,346.0,6.33,12.17,47.59359,-54.27349
2023-03-18 07:34:00+00:00,347.0,7.33,338.0,8.72,12.17,47.59359,-54.27349
2023-03-18 07:44:00+00:00,348.0,8.0,351.0,9.68,12.17,47.59359,-54.27349
2023-03-18 07:54:00+00:00,348.0,7.34,336.0,8.54,12.17,47.59359,-54.27349
2023-03-18 08:04:00+00:00,344.0,6.94,337.0,8.93,12.17,47.59359,-54.27349
2023-03-18 08:14:00+00:00,354.0,7.92,341.0,9.18,12.09,47.59359,-54.27349
2023-03-18 08:24:00+00:00,332.0,7.33,333.0,8.46,12.09,47.59359,-54.27349
2023-03-18 08:34:00+00:00,348.0,6.42,335.0,9.29,12.09,47.59359,-54.27349
2023-03-18 08:44:00+00:00,358.0,7.37,350.0,8.59,12.09,47.59359,-54.27349
2023-03-18 08:54:00+00:00,354.0,5.99,334.0,7.43,12.09,47.59359,-54.27349
2023-03-18 09:04:00+00:00,355.0,7.84,0.0,9.68,12.09,47.59359,-54.27349
2023-03-18 09:14:00+00:00,353.0,9.01,356.0,10.14,12.09,47.59359,-54.27349
2023-03-18 09:24:00+00:00,355.0,7.84,348.0,10.22,12.09,47.59359,-54.27349
2023-03-18 09:34:00+00:00,2.0,5.7,5.0,6.72,12.09,47.59359,-54.27349
2023-03-18 09:44:00+00:00,358.0,5.11,357.0,5.7,12.09,47.59359,-54.27349
2023-03-18 09:54:00+00:00,357.0,3.8,355.0,4.5,12.09,47.59359,-54.27349
2023-03-18 10:04:00+00:00,359.0,7.53,1.0,8.51,12.09,47.59359,-54.27349
2023-03-18 10:14:00+00:00,358.0,6.45,357.0,7.65,12.09,47.59359,-54.27349
2023-03-18 10:24:00+00:00,358.0,5.44,7.0,6.21,12.09,47.59359,-54.27349
2023-03-18 10:34:00+00:00,355.0,6.04,354.0,6.96,12.09,47.59359,-54.27349
2023-03-18 10:44:00+00:00,356.0,5.91,352.0,7.14,12.09,47.59359,-54.27349
2023-03-18 10:54:00+00:00,358.0,5.45,1.0,6.24,12.09,47.59359,-54.27349
2023-03-18 11:04:00+00:00,359.0,5.56,358.0,6.15,12.09,47.59359,-54.27349
2023-03-18 11:14:00+00:00,0.0,5.95,5.0,7.64,12.65,47.59359,-54.27349
2023-03-18 11:24:00+00:00,359.0,6.03,0.0,6.55,12.65,47.59359,-54.27349
2023-03-18 11:34:00+00:00,359.0,5.58,359.0,6.02,12.65,47.59359,-54.27349
2023-03-18 11:44:00+00:00,2.0,6.79,7.0,7.68,12.65,47.59359,-54.27349
2023-03-18 11:54:00+00:00,355.0,5.15,357.0,6.18,12.65,47.59359,-54.27349
2023-03-18 12:04:00+00:00,355.0,6.1,2.0,7.74,12.65,47.59359,-54.27349
2023-03-18 12:14:00+00:00,352.0,5.31,0.0,6.1,13.68,47.59359,-54.27349
2023-03-18 12:24:00+00:00,6.0,5.33,337.0,6.32,13.68,47.59359,-54.27349
2023-03-18 12:34:00+00:00,8.0,5.04,12.0,5.75,13.68,47.59359,-54.27349
2023-03-18 12:44:00+00:00,321.0,6.34,315.0,7.12,13.68,47.59359,-54.27349
2023-03-18 12:54:00+00:00,4.0,4.94,347.0,5.46,13.68,47.59359,-54.27349
2023-03-18 13:04:00+00:00,324.0,6.96,322.0,7.65,13.68,47.59359,-54.27349
2023-03-18 13:14:00+00:00,324.0,7.11,325.0,8.18,13.68,47.59359,-54.27349
2023-03-18 13:24:00+00:00,325.0,6.57,323.0,7.26,13.68,47.59359,-54.27349
2023-03-18 13:34:00+00:00,327.0,7.35,329.0,8.08,13.68,47.59359,-54.27349
2023-03-18 13:44:00+00:00,331.0,7.46,333.0,8.46,13.68,47.59359,-54.27349
2023-03-18 13:54:00+00:00,337.0,8.15,335.0,9.13,13.68,47.59359,-54.27349
2023-03-18 14:04:00+00:00,339.0,8.23,335.0,9.14,13.68,47.59359,-54.27349
2023-03-18 14:14:00+00:00,354.0,5.79,333.0,7.29,13.6,47.59359,-54.27349
2023-03-18 14:24:00+00:00,358.0,5.41,358.0,6.2,13.6,47.59359,-54.27349
2023-03-18 14:34:00+00:00,359.0,5.53,9.0,6.11,13.6,47.59359,-54.27349
2023-03-18 14:44:00+00:00,349.0,5.3,347.0,6.03,13.6,47.59359,-54.27349
2023-03-18 14:54:00+00:00,343.0,4.4,341.0,4.91,13.6,47.59359,-54.27349
2023-03-18 15:04:00+00:00,326.0,7.62,326.0,8.15,13.6,47.59359,-54.27349
2023-03-18 15:14:00+00:00,330.0,7.29,328.0,7.83,13.68,47.59359,-54.27349
2023-03-18 15:24:00+00:00,332.0,7.46,333.0,8.82,13.68,47.59359,-54.27349
2023-03-18 15:34:00+00:00,347.0,5.99,346.0,6.75,13.68,47.59359,-54.27349
2023-03-18 15:44:00+00:00,329.0,6.37,326.0,7.03,13.68,47.59359,-54.27349
2023-03-18 15:54:00+00:00,341.0,5.73,337.0,7.11,13.68,47.59359,-54.27349
2023-03-18 16:04:00+00:00,337.0,5.04,330.0,5.88,13.68,47.59359,-54.27349
2023-03-18 16:14:00+00:00,326.0,6.62,325.0,7.12,13.68,47.59359,-54.27349
2023-03-18 16:24:00+00:00,334.0,6.81,336.0,7.29,13.68,47.59359,-54.27349
2023-03-18 16:34:00+00:00,333.0,6.65,333.0,7.5,13.68,47.59359,-54.27349
2023-03-18 16:44:00+00:00,338.0,7.13,335.0,8.05,13.68,47.59359,-54.27349
2023-03-18 16:54:00+00:00,338.0,5.3,338.0,5.94,13.68,47.59359,-54.27349
2023-03-18 17:04:00+00:00,342.0,6.56,341.0,7.43,13.68,47.59359,-54.27349
2023-03-18 17:14:00+00:00,344.0,4.24,338.0,4.61,13.68,47.59359,-54.27349
2023-03-18 17:24:00+00:00,350.0,5.5,349.0,6.57,13.68,47.59359,-54.27349
2023-03-18 17:34:00+00:00,353.0,4.53,353.0,4.97,13.68,47.59359,-54.27349
2023-03-18 17:44:00+00:00,341.0,5.84,343.0,6.86,13.68,47.59359,-54.27349
2023-03-18 17:54:00+00:00,339.0,5.49,337.0,6.25,13.68,47.59359,-54.27349
2023-03-18 18:04:00+00:00,333.0,4.74,334.0,5.17,13.68,47.59359,-54.27349
2023-03-18 18:14:01+00:00,315.0,5.84,318.0,6.29,13.68,47.59359,-54.27349
2023-03-18 18:24:01+00:00,323.0,5.07,324.0,5.76,13.68,47.59359,-54.27349
2023-03-18 18:34:01+00:00,331.0,4.87,330.0,6.02,13.68,47.59359,-54.27349
2023-03-18 18:44:01+00:00,342.0,4.19,343.0,4.55,13.68,47.59359,-54.27349
2023-03-18 18:54:01+00:00,341.0,4.42,345.0,4.95,13.68,47.59359,-54.27349
2023-03-18 19:04:01+00:00,320.0,4.76,324.0,5.36,13.68,47.59359,-54.27349
2023-03-18 19:14:00+00:00,338.0,4.37,332.0,5.47,13.76,47.59359,-54.27349
2023-03-18 19:24:00+00:00,328.0,5.15,328.0,5.95,13.76,47.59359,-54.27349
2023-03-18 19:34:00+00:00,309.0,4.16,311.0,4.65,13.76,47.59359,-54.27349
2023-03-18 19:44:00+00:00,302.0,4.56,301.0,5.13,13.76,47.59359,-54.27349
2023-03-18 19:54:00+00:00,309.0,3.81,311.0,4.16,13.76,47.59359,-54.27349
2023-03-18 20:04:00+00:00,298.0,5.37,300.0,5.97,13.76,47.59359,-54.27349
2023-03-18 20:14:00+00:00,307.0,6.39,307.0,7.14,13.68,47.59359,-54.27349
2023-03-18 20:24:00+00:00,311.0,5.63,311.0,6.59,13.68,47.59359,-54.27349
2023-03-18 20:34:00+00:00,326.0,5.15,326.0,5.66,13.68,47.59359,-54.27349
2023-03-18 20:44:00+00:00,345.0,4.21,345.0,4.47,13.68,47.59359,-54.27349
2023-03-18 20:54:00+00:00,1.0,3.78,1.0,4.12,13.68,47.59359,-54.27349
2023-03-18 21:04:00+00:00,9.0,3.29,14.0,3.83,13.68,47.59359,-54.27349
2023-03-18 21:14:01+00:00,9.0,3.12,4.0,3.57,13.29,47.59359,-54.27349
2023-03-18 21:24:01+00:00,19.0,2.9,19.0,3.28,13.29,47.59359,-54.27349
2023-03-18 21:34:01+00:00,1.0,2.21,0.0,2.53,13.29,47.59359,-54.27349
2023-03-18 21:44:01+00:00,45.0,1.75,50.0,1.95,13.29,47.59359,-54.27349
2023-03-18 21:54:01+00:00,14.0,1.3,16.0,1.46,13.29,47.59359,-54.27349
2023-03-18 22:04:01+00:00,115.0,0.67,122.0,0.86,13.29,47.59359,-54.27349
2023-03-18 22:14:00+00:00,204.0,0.38,197.0,0.61,12.65,47.59359,-54.27349
2023-03-18 22:24:00+00:00,276.0,0.33,271.0,0.47,12.65,47.59359,-54.27349
2023-03-18 22:34:00+00:00,301.0,0.26,307.0,0.35,12.65,47.59359,-54.27349
2023-03-18 22:44:00+00:00,287.0,0.51,289.0,0.57,12.65,47.59359,-54.27349
2023-03-18 22:54:00+00:00,251.0,2.97,252.0,3.2,12.65,47.59359,-54.27349
2023-03-18 23:04:00+00:00,249.0,2.5,249.0,2.79,12.65,47.59359,-54.27349
2023-03-18 23:14:00+00:00,250.0,0.85,249.0,0.96,12.33,47.59359,-54.27349
2023-03-18 23:24:00+00:00,237.0,1.12,236.0,1.21,12.33,47.59359,-54.27349
2023-03-18 23:34:00+00:00,177.0,0.53,164.0,0.6,12.33,47.59359,-54.27349
2023-03-18 23:44:00+00:00,154.0,1.32,147.0,1.8,12.33,47.59359,-54.27349
2023-03-18 23:54:00+00:00,182.0,0.85,164.0,1.17,12.33,47.59359,-54.27349
